Location: Unspecified
(33.2407°S, 0.0000°E)
Time: 09:57:33
(UTC+00:00)

Envisat - Pass Details

Date: 24 May 2019
Orbit: 764 x 766 km, 98.1° (Epoch: 19 June)

Event Time Altitude Azimuth Distance (km) Brightness Sun altitude
Rises 05:26:33 0° 51° (NE) 3,226 7.4 -17.3°
Reaches altitude 10° 05:29:26 10° 68° (ENE) 2,309 6.8 -16.7°
Maximum altitude 05:32:59 20° 113° (ESE) 1,751 5.5 -16.0°
Drops below altitude 10° 05:36:35 10° 157° (SSE) 2,329 5.6 -15.2°
Sets 05:39:29 0° 174° (S) 3,264 6.2 -14.7°
